Location: USNO
(38.9242°N, 77.0663°W)
Time: 03:56:33
(UTC-04:00)

Tiangong 1 - Pass Details

Date: 08 October 2017
Orbit: 292 x 319 km, 42.8° (Epoch: 22 October)

Event Time Altitude Azimuth Distance (km) Brightness Sun altitude
Rises 20:32:11 0° 282° (WNW) 2,031 6.2 -22.6°
Reaches altitude 10° 20:34:16 10° 293° (WNW) 1,196 4.6 -23.0°
Enters shadow 20:35:21 19° 307° (NW) 814 3.4 -23.2°
